| time (UTC) | temp F | wind direction | speed MPH | gust MPH | rain 1hr in | rain 24hr in | rain mn in | humidity % | barometer mb |
| 20260904125622 | 75 | 234 | 2.0 | 9.0 | 0.00 | 0.05 | 0.00 | 84 | 1013.4 |
| 20260904125122 | 75 | 308 | 1.0 | 10.0 | 0.00 | 0.05 | 0.00 | 85 | 1013.5 |
| 20260904124624 | 75 | 308 | 2.0 | 10.0 | 0.00 | 0.05 | 0.00 | 86 | 1013.4 |
| 20260904124121 | 74 | 250 | 2.0 | 8.0 | 0.00 | 0.05 | 0.00 | 86 | 1013.4 |
| 20260904123847 | 74 | 311 | 1.0 | 8.0 | 0.00 | 0.05 | 0.00 | 86 | 1013.5 |
| 20260904123356 | 74 | 277 | 1.0 | 6.0 | 0.00 | 0.05 | 0.00 | 87 | 1013.7 |
| 20260904122842 | 73 | 5 | 2.0 | 10.0 | 0.00 | 0.05 | 0.00 | 87 | 1013.8 |
| 20260904122127 | 73 | 323 | 3.0 | 10.0 | 0.00 | 0.05 | 0.00 | 87 | 1013.8 |
| 20260904121612 | 73 | 319 | 3.0 | 8.0 | 0.00 | 0.05 | 0.00 | 87 | 1013.7 |
| 20260904121112 | 73 | 262 | 3.0 | 11.0 | 0.00 | 0.05 | 0.00 | 88 | 1013.7 |
| 20260904120613 | 73 | 316 | 3.0 | 11.0 | 0.00 | 0.05 | 0.00 | 88 | 1013.6 |
| 20260904120126 | 72 | 319 | 2.0 | 8.0 | 0.00 | 0.05 | 0.00 | 88 | 1013.5 |
| 20260904115612 | 72 | 263 | 2.0 | 8.0 | 0.00 | 0.05 | 0.00 | 89 | 1013.5 |
| 20260904115113 | 72 | 0 | 2.0 | 8.0 | 0.00 | 0.05 | 0.00 | 90 | 1013.5 |
| 20260904114834 | 71 | 247 | 1.0 | 8.0 | 0.00 | 0.05 | 0.00 | 90 | 1013.5 |
| 20260904114111 | 71 | 242 | 1.0 | 5.0 | 0.00 | 0.05 | 0.00 | 90 | 1013.6 |
| 20260904113609 | 71 | 240 | 1.0 | 4.0 | 0.00 | 0.05 | 0.00 | 91 | 1013.5 |
| 20260904113326 | 71 | 240 | 1.0 | 3.0 | 0.00 | 0.05 | 0.00 | 91 | 1013.5 |
| 20260904112608 | 70 | 240 | 1.0 | 3.0 | 0.00 | 0.05 | 0.00 | 91 | 1013.4 |
| 20260904112106 | 70 | 236 | 1.0 | 3.0 | 0.00 | 0.05 | 0.00 | 91 | 1013.4 |
| 20260904111823 | 70 | 236 | 1.0 | 4.0 | 0.00 | 0.05 | 0.00 | 91 | 1013.4 |
| 20260904111332 | 70 | 236 | 1.0 | 4.0 | 0.00 | 0.05 | 0.00 | 92 | 1013.2 |
| 20260904110608 | 70 | 236 | 1.0 | 4.0 | 0.00 | 0.05 | 0.00 | 92 | 1013.2 |
| 20260904110327 | 69 | 236 | 0.0 | 4.0 | 0.00 | 0.05 | 0.00 | 92 | 1013.0 |
| 20260904105603 | 69 | 235 | 0.0 | 2.0 | 0.00 | 0.05 | 0.00 | 92 | 1012.9 |
| 20260904105321 | 69 | 233 | 0.0 | 0.0 | 0.00 | 0.06 | 0.00 | 92 | 1012.9 |
| 20260904104608 | 69 | 233 | 0.0 | 0.0 | 0.00 | 0.06 | 0.00 | 92 | 1012.8 |
| 20260904104101 | 69 | 233 | 0.0 | 0.0 | 0.00 | 0.07 | 0.00 | 92 | 1012.8 |
| 20260904103601 | 69 | 233 | 0.0 | 0.0 | 0.00 | 0.07 | 0.00 | 92 | 1012.8 |
| 20260904103102 | 69 | 233 | 0.0 | 0.0 | 0.00 | 0.07 | 0.00 | 92 | 1012.7 |
| 20260904102559 | 70 | 233 | 0.0 | 0.0 | 0.00 | 0.07 | 0.00 | 92 | 1012.7 |
| 20260904102059 | 70 | 233 | 0.0 | 0.0 | 0.00 | 0.08 | 0.00 | 92 | 1012.6 |
| 20260904101558 | 70 | 233 | 0.0 | 0.0 | 0.00 | 0.08 | 0.00 | 92 | 1012.6 |
| 20260904101059 | 70 | 233 | 0.0 | 0.0 | 0.00 | 0.08 | 0.00 | 92 | 1012.5 |
| 20260904100559 | 70 | 233 | 0.0 | 0.0 | 0.00 | 0.08 | 0.00 | 92 | 1012.4 |
| 20260904100332 | 70 | 233 | 0.0 | 0.0 | 0.00 | 0.08 | 0.00 | 91 | 1012.3 |
| 20260904095758 | 71 | 233 | 0.0 | 0.0 | 0.00 | 0.08 | 0.00 | 91 | 1012.5 |
| 20260904095644 | 70 | 233 | 0.0 | 0.0 | 0.00 | 0.08 | 0.00 | 91 | 1012.3 |
| 20260904094551 | 71 | 233 | 0.0 | 0.0 | 0.00 | 0.08 | 0.00 | 91 | 1012.5 |
| 20260904094053 | 71 | 233 | 0.0 | 0.0 | 0.00 | 0.08 | 0.00 | 91 | 1012.5 |
| 20260904093550 | 71 | 234 | 0.0 | 0.0 | 0.00 | 0.09 | 0.00 | 90 | 1012.5 |
| 20260904093050 | 71 | 234 | 0.0 | 0.0 | 0.00 | 0.21 | 0.00 | 90 | 1012.5 |
| 20260904092550 | 71 | 234 | 0.0 | 0.0 | 0.00 | 0.22 | 0.00 | 90 | 1012.6 |
| 20260904092045 | 72 | 233 | 0.0 | 0.0 | 0.00 | 0.22 | 0.00 | 90 | 1012.6 |
| 20260904091544 | 72 | 234 | 0.0 | 0.0 | 0.00 | 0.23 | 0.00 | 90 | 1012.7 |
| 20260904091041 | 72 | 233 | 0.0 | 0.0 | 0.00 | 0.23 | 0.00 | 90 | 1012.7 |
| 20260904090545 | 72 | 234 | 0.0 | 2.0 | 0.00 | 0.23 | 0.00 | 90 | 1012.8 |
| 20260904090057 | 72 | 234 | 0.0 | 2.0 | 0.00 | 0.23 | 0.00 | 90 | 1012.8 |
| 20260904085541 | 72 | 233 | 0.0 | 2.0 | 0.00 | 0.24 | 0.00 | 90 | 1012.8 |
| 20260904085039 | 72 | 233 | 0.0 | 2.0 | 0.00 | 0.30 | 0.00 | 90 | 1012.8 |
| 20260904084806 | 72 | 233 | 1.0 | 3.0 | 0.00 | 0.30 | 0.00 | 89 | 1012.7 |
| 20260904084037 | 72 | 234 | 2.0 | 5.0 | 0.00 | 0.30 | 0.00 | 89 | 1012.9 |
| 20260904083536 | 72 | 239 | 1.0 | 5.0 | 0.00 | 0.30 | 0.00 | 89 | 1013.0 |
| 20260904083037 | 73 | 252 | 1.0 | 3.0 | 0.00 | 0.30 | 0.00 | 89 | 1013.0 |
| 20260904082540 | 73 | 255 | 1.0 | 3.0 | 0.00 | 0.30 | 0.00 | 89 | 1012.9 |
| 20260904082038 | 72 | 255 | 0.0 | 2.0 | 0.00 | 0.33 | 0.00 | 89 | 1013.0 |
| 20260904081547 | 73 | 256 | 0.0 | 3.0 | 0.00 | 0.42 | 0.00 | 90 | 1013.0 |
| 20260904081036 | 73 | 256 | 0.0 | 3.0 | 0.00 | 0.48 | 0.00 | 90 | 1012.9 |
| 20260904080530 | 73 | 254 | 0.0 | 0.0 | 0.00 | 0.48 | 0.00 | 90 | 1013.0 |
| 20260904080250 | 73 | 254 | 0.0 | 2.0 | 0.00 | 0.48 | 0.00 | 90 | 1012.8 |
| 20260904075527 | 73 | 254 | 0.0 | 3.0 | 0.00 | 0.49 | 0.00 | 90 | 1012.8 |
| 20260904075249 | 73 | 254 | 0.0 | 3.0 | 0.00 | 0.49 | 0.00 | 91 | 1012.8 |
| 20260904074527 | 73 | 255 | 0.0 | 2.0 | 0.00 | 0.49 | 0.00 | 91 | 1012.8 |
| 20260904074029 | 73 | 255 | 1.0 | 5.0 | 0.00 | 0.49 | 0.00 | 91 | 1012.9 |
| 20260904073527 | 73 | 254 | 0.0 | 5.0 | 0.00 | 0.49 | 0.00 | 91 | 1013.0 |
| 20260904073022 | 73 | 298 | 0.0 | 2.0 | 0.00 | 0.49 | 0.00 | 91 | 1013.0 |
| 20260904072742 | 73 | 298 | 0.0 | 1.0 | 0.00 | 0.49 | 0.00 | 92 | 1012.9 |
| 20260904072011 | 72 | 298 | 1.0 | 4.0 | 0.00 | 0.49 | 0.00 | 92 | 1012.8 |
| 20260904071946 | 72 | 298 | 1.0 | 6.0 | 0.00 | 0.49 | 0.00 | 93 | 1012.8 |
| 20260904070957 | 72 | 265 | 1.0 | 6.0 | 0.00 | 0.49 | 0.00 | 93 | 1012.6 |
| 20260904070454 | 72 | 325 | 0.0 | 2.0 | 0.00 | 0.49 | 0.00 | 93 | 1012.5 |
| 20260904070218 | 72 | 325 | 0.0 | 0.0 | 0.00 | 0.49 | 0.00 | 93 | 1012.5 |
| 20260904065453 | 72 | 325 | 0.0 | 0.0 | 0.00 | 0.49 | 0.00 | 93 | 1012.3 |
| 20260904064952 | 72 | 325 | 0.0 | 2.0 | 0.00 | 0.49 | 0.00 | 93 | 1012.2 |
| 20260904064451 | 73 | 325 | 1.0 | 2.0 | 0.00 | 0.49 | 0.00 | 92 | 1012.0 |
| 20260904063951 | 73 | 325 | 0.0 | 2.0 | 0.00 | 0.49 | 0.00 | 92 | 1011.7 |
| 20260904063451 | 73 | 325 | 0.0 | 2.0 | 0.00 | 0.49 | 0.00 | 92 | 1011.6 |
| 20260904062948 | 73 | 325 | 0.0 | 2.0 | 0.00 | 0.49 | 0.00 | 92 | 1011.5 |
| 20260904062446 | 73 | 325 | 0.0 | 2.0 | 0.00 | 0.49 | 0.00 | 92 | 1011.3 |
| 20260904062221 | 73 | 325 | 0.0 | 2.0 | 0.00 | 0.49 | 0.00 | 92 | 1011.4 |
| 20260904061737 | 73 | 325 | 0.0 | 4.0 | 0.00 | 0.49 | 0.00 | 91 | 1011.4 |
| 20260904061454 | 73 | 325 | 0.0 | 2.0 | 0.00 | 0.49 | 0.00 | 91 | 1011.5 |
| 20260904060437 | 74 | 325 | 1.0 | 4.0 | 0.00 | 0.49 | 0.00 | 91 | 1011.5 |
| 20260904055942 | 74 | 325 | 0.0 | 3.0 | 0.00 | 0.49 | 0.00 | 91 | 1011.5 |
| 20260904055438 | 74 | 326 | 0.0 | 5.0 | 0.00 | 0.49 | 0.00 | 91 | 1011.5 |
| 20260904054940 | 74 | 326 | 1.0 | 5.0 | 0.00 | 0.49 | 0.00 | 91 | 1011.7 |
| 20260904054436 | 74 | 321 | 1.0 | 4.0 | 0.00 | 0.50 | 0.00 | 91 | 1011.8 |
| 20260904053935 | 74 | 325 | 1.0 | 4.0 | 0.00 | 0.52 | 0.00 | 92 | 1012.0 |
| 20260904053436 | 74 | 323 | 1.0 | 5.0 | 0.00 | 0.64 | 0.00 | 92 | 1012.2 |
| 20260904052935 | 74 | 321 | 1.0 | 5.0 | 0.00 | 0.95 | 0.00 | 92 | 1012.3 |
| 20260904052434 | 74 | 262 | 1.0 | 4.0 | 0.00 | 1.08 | 0.00 | 93 | 1012.5 |
| 20260904051929 | 74 | 317 | 1.0 | 6.0 | 0.00 | 1.08 | 0.00 | 93 | 1012.3 |
| 20260904051651 | 74 | 279 | 1.0 | 6.0 | 0.00 | 1.08 | 0.00 | 93 | 1012.3 |
| 20260904050931 | 75 | 249 | 0.0 | 0.0 | 0.00 | 1.08 | 0.00 | 93 | 1012.3 |
| 20260904050430 | 75 | 249 | 0.0 | 0.0 | 0.00 | 1.09 | 0.00 | 93 | 1012.1 |
| 20260904045929 | 75 | 249 | 0.0 | 0.0 | 0.00 | 1.22 | 0.00 | 93 | 1012.0 |
| 20260904045428 | 75 | 249 | 0.0 | 0.0 | 0.00 | 1.30 | 0.00 | 93 | 1012.0 |
| 20260904044923 | 75 | 249 | 0.0 | 0.0 | 0.00 | 1.30 | 0.00 | 93 | 1012.0 |
| 20260904044649 | 75 | 249 | 0.0 | 0.0 | 0.00 | 1.30 | 0.00 | 93 | 1011.9 |
| 20260904043918 | 75 | 249 | 0.0 | 0.0 | 0.00 | 1.30 | 0.00 | 93 | 1012.0 |
| 20260904043419 | 75 | 249 | 0.0 | 0.0 | 0.00 | 1.30 | 0.00 | 93 | 1012.1 |
| 20260904043145 | 75 | 249 | 0.0 | 0.0 | 0.00 | 1.30 | 0.00 | 93 | 1012.2 |
| 20260904042906 | 75 | 249 | 0.0 | 2.0 | 0.00 | 1.30 | 0.00 | 93 | 1012.3 |
| 20260904041919 | 75 | 249 | 0.0 | 2.0 | 0.00 | 1.30 | 0.00 | 93 | 1012.3 |
| 20260904041419 | 75 | 249 | 0.0 | 0.0 | 0.00 | 1.30 | 0.00 | 93 | 1012.5 |
| 20260904040916 | 75 | 249 | 0.0 | 0.0 | 0.02 | 1.30 | 0.00 | 93 | 1012.6 |
| 20260904040413 | 75 | 249 | 0.0 | 0.0 | 0.05 | 1.30 | 0.00 | 93 | 1012.7 |
| 20260904040143 | 75 | 249 | 0.0 | 0.0 | 0.05 | 1.30 | 1.30 | 93 | 1012.7 |
| 20260904035633 | 75 | 249 | 0.0 | 0.0 | 0.05 | 1.30 | 1.30 | 93 | 1012.8 |
| 20260904034913 | 75 | 249 | 0.0 | 0.0 | 0.05 | 1.30 | 1.30 | 93 | 1013.0 |
| 20260904034413 | 75 | 249 | 0.0 | 1.0 | 0.05 | 1.30 | 1.30 | 93 | 1013.3 |
| 20260904033915 | 75 | 249 | 0.0 | 2.0 | 0.05 | 1.30 | 1.30 | 93 | 1013.4 |
| 20260904033645 | 75 | 249 | 0.0 | 2.0 | 0.05 | 1.30 | 1.30 | 92 | 1013.4 |
| 20260904032915 | 75 | 249 | 0.0 | 2.0 | 0.05 | 1.30 | 1.30 | 92 | 1013.5 |
| 20260904032418 | 75 | 249 | 1.0 | 3.0 | 0.05 | 1.30 | 1.30 | 92 | 1013.4 |
| 20260904031916 | 75 | 249 | 1.0 | 3.0 | 0.05 | 1.30 | 1.30 | 92 | 1013.3 |
| 20260904031413 | 75 | 249 | 1.0 | 4.0 | 0.05 | 1.30 | 1.30 | 92 | 1013.4 |
| 20260904030913 | 76 | 248 | 1.0 | 4.0 | 0.03 | 1.28 | 1.29 | 92 | 1013.7 |
| 20260904030413 | 76 | 252 | 0.0 | 0.0 | 0.00 | 1.25 | 1.25 | 92 | 1013.6 |
| 20260904025913 | 76 | 252 | 0.0 | 0.0 | 0.00 | 1.25 | 1.25 | 92 | 1013.4 |
| 20260904025412 | 76 | 252 | 0.0 | 0.0 | 0.00 | 1.25 | 1.25 | 92 | 1013.4 |
| 20260904024914 | 76 | 252 | 0.0 | 0.0 | 0.00 | 1.25 | 1.25 | 92 | 1013.5 |
| 20260904024413 | 76 | 252 | 0.0 | 0.0 | 0.00 | 1.25 | 1.25 | 92 | 1013.5 |
| 20260904024137 | 75 | 252 | 0.0 | 0.0 | 0.00 | 1.25 | 1.25 | 92 | 1013.4 |
| 20260904023411 | 75 | 252 | 0.0 | 0.0 | 0.00 | 1.25 | 1.25 | 92 | 1013.5 |
| 20260904022917 | 75 | 252 | 0.0 | 0.0 | 0.00 | 1.25 | 1.25 | 92 | 1013.5 |
| 20260904022413 | 75 | 252 | 0.0 | 0.0 | 0.00 | 1.25 | 1.25 | 91 | 1013.5 |
| 20260904021912 | 75 | 252 | 0.0 | 0.0 | 0.00 | 1.25 | 1.25 | 91 | 1013.4 |
| 20260904021411 | 75 | 252 | 0.0 | 0.0 | 0.00 | 1.25 | 1.25 | 91 | 1013.4 |
| 20260904020913 | 76 | 252 | 0.0 | 0.0 | 0.00 | 1.25 | 1.25 | 91 | 1013.5 |
| 20260904020411 | 76 | 252 | 0.0 | 0.0 | 0.00 | 1.25 | 1.25 | 91 | 1013.3 |
| 20260904015914 | 76 | 252 | 0.0 | 0.0 | 0.00 | 1.25 | 1.25 | 91 | 1013.2 |
| 20260904015415 | 76 | 252 | 0.0 | 0.0 | 0.00 | 1.25 | 1.25 | 91 | 1013.2 |
| 20260904014913 | 76 | 252 | 0.0 | 1.0 | 0.00 | 1.25 | 1.25 | 91 | 1013.1 |
| 20260904014417 | 76 | 252 | 1.0 | 2.0 | 0.00 | 1.25 | 1.25 | 91 | 1013.1 |
| 20260904013910 | 76 | 252 | 0.0 | 2.0 | 0.00 | 1.25 | 1.25 | 91 | 1013.2 |
| 20260904013409 | 76 | 252 | 0.0 | 1.0 | 0.00 | 1.25 | 1.25 | 91 | 1013.2 |
| 20260904013139 | 76 | 252 | 0.0 | 1.0 | 0.00 | 1.25 | 1.25 | 91 | 1013.3 |
| 20260904012408 | 76 | 252 | 0.0 | 1.0 | 0.00 | 1.25 | 1.25 | 91 | 1013.4 |
| 20260904011908 | 76 | 252 | 0.0 | 0.0 | 0.00 | 1.25 | 1.25 | 91 | 1013.5 |
| 20260904011407 | 76 | 252 | 0.0 | 0.0 | 0.00 | 1.25 | 1.25 | 91 | 1013.5 |
| 20260904010906 | 76 | 252 | 0.0 | 0.0 | 0.00 | 1.25 | 1.25 | 91 | 1013.6 |
| 20260904010418 | 76 | 252 | 0.0 | 0.0 | 0.00 | 1.25 | 1.25 | 91 | 1013.7 |
| 20260904005907 | 76 | 252 | 0.0 | 0.0 | 0.00 | 1.25 | 1.25 | 91 | 1013.9 |
| 20260904005409 | 76 | 252 | 0.0 | 0.0 | 0.00 | 1.25 | 1.25 | 91 | 1014.0 |
| 20260904004905 | 76 | 252 | 0.0 | 0.0 | 0.00 | 1.25 | 1.25 | 91 | 1014.0 |
| 20260904004405 | 76 | 252 | 0.0 | 0.0 | 0.00 | 1.25 | 1.25 | 90 | 1013.9 |
| 20260904003906 | 76 | 252 | 0.0 | 1.0 | 0.00 | 1.25 | 1.25 | 90 | 1014.0 |
| 20260904003619 | 76 | 252 | 0.0 | 1.0 | 0.00 | 1.25 | 1.25 | 90 | 1013.9 |
| 20260904002853 | 76 | 252 | 0.0 | 0.0 | 0.00 | 1.25 | 1.25 | 90 | 1013.8 |
| 20260904002611 | 76 | 252 | 0.0 | 0.0 | 0.00 | 1.25 | 1.25 | 90 | 1013.8 |
| 20260904001842 | 77 | 252 | 0.0 | 0.0 | 0.00 | 1.25 | 1.25 | 90 | 1013.7 |
| 20260904001338 | 77 | 252 | 0.0 | 1.0 | 0.00 | 1.25 | 1.25 | 89 | 1013.8 |
| 20260904000833 | 77 | 252 | 0.0 | 1.0 | 0.00 | 1.25 | 1.25 | 89 | 1013.6 |
| 20260904000334 | 77 | 252 | 0.0 | 0.0 | 0.00 | 1.25 | 1.25 | 89 | 1013.7 |
| 20260903235831 | 77 | 252 | 0.0 | 0.0 | 0.00 | 1.25 | 1.25 | 88 | 1013.7 |
| 20260903235328 | 77 | 252 | 0.0 | 0.0 | 0.00 | 1.25 | 1.25 | 88 | 1013.5 |
| 20260903234828 | 78 | 252 | 0.0 | 0.0 | 0.00 | 1.25 | 1.25 | 88 | 1013.4 |
| 20260903234329 | 78 | 252 | 0.0 | 0.0 | 0.00 | 1.25 | 1.25 | 87 | 1013.2 |
| 20260903233827 | 78 | 252 | 0.0 | 0.0 | 0.00 | 1.25 | 1.25 | 86 | 1013.1 |
| 20260903233328 | 78 | 252 | 0.0 | 0.0 | 0.00 | 1.25 | 1.25 | 87 | 1013.2 |
| 20260903233056 | 79 | 252 | 0.0 | 0.0 | 0.00 | 1.25 | 1.25 | 86 | 1013.2 |
| 20260903232326 | 79 | 252 | 0.0 | 1.0 | 0.00 | 1.25 | 1.25 | 86 | 1013.2 |
| 20260903231825 | 80 | 252 | 0.0 | 1.0 | 0.00 | 1.25 | 1.25 | 84 | 1013.3 |
| 20260903231335 | 80 | 252 | 0.0 | 0.0 | 0.00 | 1.25 | 1.25 | 82 | 1013.5 |
| 20260903231327 | 80 | 252 | 0.0 | 0.0 | 0.00 | 1.25 | 1.25 | 83 | 1013.3 |
| 20260903230325 | 80 | 252 | 0.0 | 0.0 | 0.00 | 1.25 | 1.25 | 83 | 1013.4 |
| 20260903230315 | 81 | 252 | 0.0 | 0.0 | 0.00 | 1.25 | 1.25 | 82 | 1013.4 |
| 20260903225324 | 81 | 252 | 0.0 | 0.0 | 0.00 | 1.25 | 1.25 | 81 | 1013.2 |
| 20260903224825 | 82 | 252 | 0.0 | 1.0 | 0.00 | 1.25 | 1.25 | 81 | 1013.0 |
| 20260903224321 | 82 | 252 | 0.0 | 3.0 | 0.00 | 1.25 | 1.25 | 77 | 1013.0 |
| 20260903223822 | 83 | 252 | 1.0 | 3.0 | 0.00 | 1.25 | 1.25 | 76 | 1013.0 |
| 20260903223318 | 83 | 253 | 0.0 | 2.0 | 0.00 | 1.25 | 1.25 | 76 | 1013.0 |
| 20260903223036 | 84 | 253 | 1.0 | 3.0 | 0.00 | 1.25 | 1.25 | 73 | 1012.9 |
| 20260903222309 | 85 | 253 | 2.0 | 3.0 | 0.00 | 1.25 | 1.25 | 71 | 1012.8 |
| 20260903221810 | 85 | 254 | 2.0 | 4.0 | 0.00 | 1.25 | 1.25 | 71 | 1012.7 |
| 20260903221308 | 85 | 254 | 2.0 | 7.0 | 0.00 | 1.25 | 1.25 | 70 | 1012.8 |
| 20260903220807 | 85 | 253 | 3.0 | 7.0 | 0.00 | 1.25 | 1.25 | 71 | 1012.9 |
| 20260903220308 | 85 | 219 | 3.0 | 8.0 | 0.00 | 1.25 | 1.25 | 69 | 1012.9 |
| 20260903215804 | 86 | 259 | 3.0 | 8.0 | 0.00 | 1.25 | 1.25 | 69 | 1012.9 |
| 20260903215306 | 86 | 302 | 3.0 | 8.0 | 0.00 | 1.25 | 1.25 | 69 | 1012.9 |
| 20260903215032 | 86 | 212 | 3.0 | 8.0 | 0.00 | 1.25 | 1.25 | 69 | 1012.9 |
| 20260903214535 | 87 | 271 | 2.0 | 5.0 | 0.00 | 1.25 | 1.25 | 71 | 1012.8 |
| 20260903214033 | 87 | 246 | 1.0 | 5.0 | 0.00 | 1.25 | 1.25 | 71 | 1012.8 |
| 20260903213305 | 87 | 250 | 1.0 | 5.0 | 0.00 | 1.25 | 1.25 | 71 | 1012.6 |
| 20260903212806 | 86 | 250 | 1.0 | 4.0 | 0.00 | 1.25 | 1.25 | 70 | 1012.5 |
| 20260903212307 | 86 | 250 | 2.0 | 5.0 | 0.00 | 1.25 | 1.25 | 68 | 1012.5 |
| 20260903212258 | 87 | 250 | 1.0 | 5.0 | 0.00 | 1.25 | 1.25 | 68 | 1012.5 |
| 20260903211308 | 87 | 250 | 2.0 | 4.0 | 0.00 | 1.25 | 1.25 | 68 | 1012.5 |
| 20260903210810 | 87 | 250 | 2.0 | 7.0 | 0.00 | 1.25 | 1.25 | 67 | 1012.4 |
| 20260903210307 | 87 | 250 | 2.0 | 7.0 | 0.00 | 1.25 | 1.25 | 68 | 1012.5 |
| 20260903205805 | 87 | 246 | 2.0 | 9.0 | 0.00 | 1.25 | 1.25 | 68 | 1012.6 |
| 20260903205746 | 87 | 246 | 3.0 | 9.0 | 0.00 | 1.25 | 1.25 | 66 | 1012.6 |
| 20260903204803 | 87 | 220 | 3.0 | 7.0 | 0.00 | 1.25 | 1.25 | 66 | 1012.6 |
| 20260903204516 | 87 | 271 | 2.0 | 7.0 | 0.00 | 1.25 | 1.25 | 66 | 1012.6 |
| 20260903204016 | 87 | 216 | 2.0 | 8.0 | 0.00 | 1.25 | 1.25 | 66 | 1012.7 |
| 20260903203257 | 87 | 216 | 3.0 | 8.0 | 0.00 | 1.25 | 1.25 | 67 | 1012.7 |
| 20260903202810 | 87 | 196 | 2.0 | 7.0 | 0.00 | 1.25 | 1.25 | 67 | 1012.9 |
| 20260903202254 | 87 | 250 | 3.0 | 9.0 | 0.00 | 1.25 | 1.25 | 68 | 1012.9 |
| 20260903201755 | 87 | 217 | 3.0 | 9.0 | 0.00 | 1.25 | 1.25 | 67 | 1013.0 |
| 20260903201515 | 87 | 207 | 2.0 | 8.0 | 0.00 | 1.25 | 1.25 | 67 | 1013.0 |
| 20260903200758 | 87 | 63 | 3.0 | 8.0 | 0.00 | 1.25 | 1.25 | 67 | 1013.1 |
| 20260903200256 | 87 | 248 | 3.0 | 8.0 | 0.00 | 1.25 | 1.25 | 68 | 1013.1 |
| 20260903195755 | 87 | 110 | 3.0 | 8.0 | 0.00 | 1.25 | 1.25 | 65 | 1013.2 |
| 20260903195254 | 87 | 261 | 3.0 | 11.0 | 0.00 | 1.25 | 1.25 | 67 | 1013.3 |
| 20260903194754 | 87 | 240 | 2.0 | 11.0 | 0.00 | 1.25 | 1.25 | 67 | 1013.2 |
| 20260903194254 | 87 | 277 | 3.0 | 12.0 | 0.00 | 1.25 | 1.25 | 66 | 1013.3 |
| 20260903194020 | 87 | 65 | 3.0 | 12.0 | 0.00 | 1.25 | 1.25 | 70 | 1013.3 |
| 20260903193255 | 87 | 227 | 3.0 | 7.0 | 0.00 | 1.25 | 1.25 | 68 | 1013.3 |
| 20260903193022 | 87 | 239 | 2.0 | 7.0 | 0.00 | 1.25 | 1.25 | 68 | 1013.4 |
| 20260903192517 | 87 | 181 | 3.0 | 9.0 | 0.00 | 1.25 | 1.25 | 69 | 1013.5 |
| 20260903191750 | 87 | 258 | 3.0 | 9.0 | 0.00 | 1.25 | 1.25 | 70 | 1013.5 |
| 20260903191251 | 87 | 258 | 3.0 | 9.0 | 0.00 | 1.25 | 1.25 | 68 | 1013.6 |
| 20260903190750 | 87 | 241 | 3.0 | 8.0 | 0.00 | 1.25 | 1.25 | 72 | 1013.7 |
| 20260903190252 | 86 | 247 | 3.0 | 8.0 | 0.00 | 1.25 | 1.25 | 69 | 1013.7 |
| 20260903185750 | 86 | 250 | 4.0 | 8.0 | 0.00 | 1.25 | 1.25 | 69 | 1013.7 |
| 20260903185249 | 86 | 186 | 3.0 | 8.0 | 0.00 | 1.25 | 1.25 | 70 | 1013.8 |
| 20260903184748 | 86 | 202 | 3.0 | 8.0 | 0.00 | 1.25 | 1.25 | 69 | 1013.9 |
| 20260903184249 | 86 | 195 | 3.0 | 8.0 | 0.00 | 1.25 | 1.25 | 71 | 1013.9 |
| 20260903183749 | 86 | 333 | 3.0 | 9.0 | 0.00 | 1.26 | 1.25 | 71 | 1014.0 |
| 20260903183304 | 86 | 249 | 3.0 | 10.0 | 0.00 | 1.26 | 1.25 | 71 | 1014.1 |
| 20260903182750 | 86 | 215 | 3.0 | 10.0 | 0.00 | 1.26 | 1.25 | 72 | 1014.1 |
| 20260903182247 | 86 | 190 | 3.0 | 6.0 | 0.00 | 1.26 | 1.25 | 74 | 1014.1 |
| 20260903181748 | 85 | 189 | 3.0 | 7.0 | 0.00 | 1.26 | 1.25 | 74 | 1014.1 |
| 20260903181511 | 85 | 238 | 3.0 | 8.0 | 0.00 | 1.26 | 1.25 | 74 | 1014.1 |
| 20260903180745 | 85 | 317 | 2.0 | 8.0 | 0.00 | 1.26 | 1.25 | 75 | 1014.2 |
| 20260903180245 | 86 | 344 | 2.0 | 10.0 | 0.00 | 1.27 | 1.25 | 80 | 1014.2 |
| 20260903175743 | 85 | 223 | 3.0 | 10.0 | 0.00 | 1.29 | 1.25 | 76 | 1014.4 |
| 20260903175241 | 85 | 239 | 2.0 | 7.0 | 0.00 | 1.31 | 1.25 | 77 | 1014.2 |
| 20260903174740 | 84 | 284 | 2.0 | 7.0 | 0.00 | 1.33 | 1.25 | 79 | 1014.4 |
| 20260903174240 | 84 | 221 | 3.0 | 8.0 | 0.00 | 1.34 | 1.25 | 77 | 1014.4 |
| 20260903173740 | 84 | 211 | 3.0 | 8.0 | 0.00 | 1.35 | 1.25 | 77 | 1014.5 |
| 20260903173236 | 84 | 250 | 2.0 | 8.0 | 0.00 | 1.36 | 1.25 | 76 | 1014.7 |
| 20260903172739 | 83 | 259 | 3.0 | 9.0 | 0.00 | 1.37 | 1.25 | 80 | 1014.7 |
| 20260903172236 | 83 | 319 | 3.0 | 9.0 | 0.00 | 1.38 | 1.25 | 79 | 1014.7 |
| 20260903171739 | 83 | 209 | 3.0 | 8.0 | 0.00 | 1.42 | 1.25 | 80 | 1014.8 |
| 20260903171240 | 83 | 231 | 4.0 | 8.0 | 0.00 | 1.70 | 1.25 | 79 | 1014.9 |
| 20260903170957 | 83 | 258 | 4.0 | 8.0 | 0.00 | 1.78 | 1.25 | 80 | 1014.8 |
| 20260903170237 | 82 | 202 | 3.0 | 8.0 | 0.00 | 1.80 | 1.25 | 80 | 1015.0 |
| 20260903165736 | 82 | 246 | 2.0 | 8.0 | 0.00 | 1.80 | 1.25 | 80 | 1015.2 |
| 20260903165236 | 82 | 209 | 2.0 | 8.0 | 0.00 | 1.80 | 1.25 | 80 | 1015.3 |
| 20260903164731 | 82 | 267 | 2.0 | 8.0 | 0.00 | 1.80 | 1.25 | 79 | 1015.4 |
| 20260903164233 | 82 | 42 | 2.0 | 7.0 | 0.00 | 1.80 | 1.25 | 79 | 1015.5 |
| 20260903163733 | 82 | 284 | 2.0 | 9.0 | 0.00 | 1.80 | 1.25 | 81 | 1015.5 |
| 20260903163727 | 82 | 265 | 2.0 | 9.0 | 0.00 | 1.80 | 1.25 | 81 | 1015.5 |
| 20260903162952 | 81 | 340 | 3.0 | 12.0 | 0.00 | 1.80 | 1.25 | 83 | 1015.7 |
| 20260903162232 | 81 | 202 | 4.0 | 12.0 | 0.00 | 1.80 | 1.25 | 82 | 1015.8 |
| 20260903161730 | 81 | 194 | 4.0 | 10.0 | 0.00 | 1.80 | 1.25 | 82 | 1015.9 |
| 20260903161232 | 80 | 210 | 3.0 | 10.0 | 0.00 | 1.80 | 1.25 | 84 | 1016.0 |
| 20260903161201 | 80 | 220 | 4.0 | 11.0 | 0.00 | 1.80 | 1.25 | 84 | 1016.0 |
| 20260903160825 | 80 | 252 | 4.0 | 11.0 | 0.00 | 1.80 | 1.25 | 84 | 1016.0 |
| 20260903155731 | 80 | 288 | 4.0 | 9.0 | 0.00 | 1.80 | 1.25 | 84 | 1016.1 |
| 20260903155454 | 81 | 255 | 3.0 | 9.0 | 0.00 | 1.80 | 1.25 | 84 | 1016.0 |
| 20260903154958 | 81 | 197 | 3.0 | 8.0 | 0.00 | 1.80 | 1.25 | 84 | 1016.2 |
| 20260903154227 | 81 | 192 | 2.0 | 9.0 | 0.00 | 1.80 | 1.25 | 86 | 1016.3 |
| 20260903153948 | 81 | 238 | 2.0 | 9.0 | 0.00 | 1.80 | 1.25 | 84 | 1016.6 |
| 20260903153226 | 80 | 254 | 3.0 | 9.0 | 0.00 | 1.80 | 1.25 | 85 | 1016.4 |
| 20260903152726 | 80 | 212 | 2.0 | 9.0 | 0.00 | 1.80 | 1.25 | 86 | 1016.7 |
| 20260903152226 | 80 | 341 | 1.0 | 7.0 | 0.00 | 1.80 | 1.25 | 87 | 1016.7 |
| 20260903151947 | 81 | 341 | 2.0 | 8.0 | 0.00 | 1.80 | 1.25 | 88 | 1016.9 |
| 20260903151228 | 80 | 285 | 2.0 | 8.0 | 0.00 | 1.80 | 1.25 | 88 | 1016.7 |
| 20260903150726 | 79 | 213 | 2.0 | 7.0 | 0.00 | 1.80 | 1.25 | 87 | 1016.6 |
| 20260903150500 | 79 | 211 | 2.0 | 7.0 | 0.00 | 1.80 | 1.25 | 89 | 1016.5 |
| 20260903145727 | 78 | 253 | 2.0 | 10.0 | 0.00 | 1.80 | 1.25 | 91 | 1016.5 |
| 20260903145228 | 77 | 209 | 3.0 | 10.0 | 0.00 | 1.80 | 1.25 | 90 | 1016.6 |
| 20260903144729 | 77 | 235 | 2.0 | 7.0 | 0.00 | 1.80 | 1.25 | 91 | 1016.6 |
| 20260903144228 | 77 | 258 | 2.0 | 7.0 | 0.00 | 1.80 | 1.25 | 91 | 1016.9 |
| 20260903143726 | 77 | 305 | 2.0 | 6.0 | 0.00 | 1.80 | 1.25 | 91 | 1017.1 |
| 20260903143229 | 77 | 273 | 2.0 | 7.0 | 0.00 | 1.80 | 1.25 | 91 | 1016.7 |
| 20260903142727 | 77 | 279 | 3.0 | 8.0 | 0.00 | 1.80 | 1.25 | 90 | 1016.3 |
| 20260903142226 | 77 | 234 | 4.0 | 8.0 | 0.00 | 1.80 | 1.25 | 91 | 1016.0 |
| 20260903141725 | 76 | 214 | 3.0 | 7.0 | 0.00 | 1.80 | 1.25 | 91 | 1015.9 |
| 20260903141226 | 76 | 208 | 3.0 | 9.0 | 0.00 | 1.80 | 1.25 | 92 | 1016.0 |
| 20260903140723 | 75 | 244 | 4.0 | 14.0 | 0.00 | 1.80 | 1.25 | 92 | 1015.8 |
| 20260903140222 | 75 | 221 | 3.0 | 14.0 | 0.00 | 1.80 | 1.25 | 92 | 1015.8 |
| 20260903135721 | 75 | 266 | 3.0 | 7.0 | 0.00 | 1.80 | 1.25 | 92 | 1015.9 |
| 20260903135449 | 75 | 211 | 3.0 | 7.0 | 0.00 | 1.80 | 1.25 | 93 | 1015.9 |
| 20260903134720 | 75 | 182 | 3.0 | 9.0 | 0.00 | 1.80 | 1.25 | 93 | 1015.9 |
| 20260903134218 | 74 | 215 | 3.0 | 9.0 | 0.00 | 1.80 | 1.25 | 93 | 1015.9 |
| 20260903133723 | 74 | 213 | 3.0 | 7.0 | 0.00 | 1.80 | 1.25 | 93 | 1016.0 |
| 20260903133500 | 74 | 207 | 3.0 | 7.0 | 0.00 | 1.80 | 1.25 | 93 | 1015.9 |
| 20260903132718 | 74 | 209 | 3.0 | 8.0 | 0.00 | 1.80 | 1.25 | 93 | 1016.1 |
| 20260903132218 | 74 | 256 | 3.0 | 8.0 | 0.00 | 1.80 | 1.25 | 93 | 1015.9 |
| 20260903131720 | 74 | 210 | 3.0 | 10.0 | 0.00 | 1.80 | 1.25 | 93 | 1015.9 |
| 20260903131217 | 74 | 220 | 3.0 | 10.0 | 0.00 | 1.80 | 1.25 | 94 | 1015.8 |
| 20260903130713 | 74 | 230 | 2.0 | 7.0 | 0.00 | 1.80 | 1.25 | 94 | 1015.9 |
| 20260903130215 | 74 | 192 | 3.0 | 8.0 | 0.00 | 1.80 | 1.25 | 94 | 1015.8 |